THOR ABLESTAR DEB, 967

Orbit data source: Space-Track

THOR ABLESTAR DEB, 967 is space debris in LEO originally from a launch on Sun, 13 Dec 1964 UTC launched from the Air Force Western Test Range (AFWTR). Debris objects in space refer to the collection of defunct objects orbiting the Earth. Examples of debris include non-operational satellites, rocket bodies, and fragments generated from explosions, collisions, or faulty payload assembly.

Loading next visibility...
Identifier
967, 1964-083F
Orbit
LEO
Country
Flag of USUS
Related business
Manufacturer
Unknown
Mission
Spacecraft
Bus & Motor
Unknown
Mass
Unknown
Launch date (UTC)
1964-12-13 (61 years ago)
Launch vehicle
Unknown
Launch site
Air Force Western Test Range (AFWTR)
Object type
Payload
Rocket body
Debris
Shape & HBR
Unknown shape, 0.1 m
Radar Cross Section
Small (<0.1 m²)

Expand to show TLE details & history
Last TLE update: 1 day ago

TLE from 1 day ago
0 THOR ABLESTAR DEB
1 00967U 64083F   25349.51411433  .00000334  00000-0  38576-3 0  9990
2 00967  89.9477 174.7082 0020428 217.7546 196.9968 13.67335367 30886
Epoch: 2025-12-15T12:20Z
TLE epoch observation values (Epoch: 2025-12-15T12:20:19.478Z)
Latitude
54.77765°
Longitude
-94.71085°
Altitude
1,032.727 km
Speed
7.333 km/s
True Right ascension
11h 39m 07s
True Declination
54° 37' 17"
Sunlit
Object was in daylight at epoch
Visualization orbit readout
Latitude
Unknown
Longitude
Unknown
Altitude
Unknown
Speed
Unknown
Apparent Right ascension
Unknown
Apparent Declination
Unknown
Sunlit
N/A
Visualization observer readout
Local Sidereal Time
14:47:27
Azimuth
Unknown
Elevation
Unknown
Doppler factor
Unknown
Orbital elements
Apogee altitude
1,021.262 km
Perigee altitude
991.093 km
Semi-major axis
7,384.314 km
Eccentricity
0.00204
Inclination
89.9477°
RAAN
174.7082°
Arg. of periapsis
217.7546°
True anomaly
196.92854°
Mean anomaly
196.9968°
Eccentric anomaly
196.96265°
Mean motion
3.42041 °/min
Orbital period
105.25 mins
BSTAR
0.00038576
Loading maneuver chart data...
Computing Atmospheric mass density...

Documentation

Showing up to 5 results
|